Location: Newark
(43.4306°N, 0.3089°E)
Time: 21:59:44
(UTC+00:00)

S-56A Canister/Altair - Pass Details

Date: 21 August 2019
Orbit: 633 x 2499 km, 38.9° (Epoch: 14 September)

Event Time Altitude Azimuth Distance (km) Brightness Sun altitude
Rises 01:15:25 0° 270° (W) 2,972 - -31.8°
Reaches altitude 10° 01:17:38 10° 263° (W) 2,137 - -31.7°
Maximum altitude 01:22:09 41° 193° (SSW) 1,157 - -31.4°
Drops below altitude 10° 01:28:09 10° 125° (SE) 2,836 - -31.0°
Exits shadow 01:29:03 - 123° (ESE) 3,168 10.6 -30.9°
Sets 01:31:31 0° 119° (ESE) 4,084 11.2 -30.7°
